Weather in Rauna

Latvia     57°19′58″N   25°36′17″E
temp.,
°C
wind,
m/s
gust,
m/s
humid.,
%
clouds,
%
prec.,
mm/h
press.,
hPa
HPBL,
m
18 april, sun
sun1800:00+8ene21082100 0.0 1024218
03:00+6ne398960 0.0 1025205
06:00+5ne3108675 0.0 1025222
09:00+9ene5106091 0.0 1024447
12:00+14ene57426 0.0 10241057
15:00+15ene56355 0.0 10241553
18:00+14ne46390 0.0 10241639
21:00+9ene310553 0.0 1025283
19 april, mon
mon1900:00+6ene25690 0.0 102693
03:00+5ne28765 0.0 1026183
06:00+3ene298249 0.0 1026186
09:00+8ene476362 0.0 1026409
12:00+12e454653 0.0 10251939
15:00+13e453997 0.0 10242205
18:00+12e3550100 0.0 10241540
21:00+9e246598 0.0 1024127
20 april, tue
tue2000:00+6e257573 0.0 1024109
03:00+5e258391 0.0 1023111
06:00+6ene2679100 0.0 1021196
09:00+8ene357077 0.2 1020476
12:00+11e454392 0.1 10182010
15:00+11ene4336100 0.1 10172085
18:00+9e4348100 0.0 10161239
21:00+5ese377090 0.1 1016365
21 april, wed
wed2100:00+3e22825 0.0 101530
03:00+2ene11895 0.0 101312
06:00+1ne12955 0.0 101219
09:00+5n247485 0.0 1009525
12:00+9nnw344981 0.0 10071522
15:00+11nnw363795 0.0 10062154
18:00+10wnw454462 0.0 10061711
21:00+5w25726 0.0 1007109
22 april, thu
thu2200:00+3wsw11795 0.0 100814
03:00+3sw22795 0.0 100915
06:00+2sw238632 0.0 101161
09:00+7sw246871 0.0 1012406
12:00+12ssw235088 0.0 10131680
15:00+12s2345100 0.1 10141755
18:00+11wsw3360100 0.1 1015569
21:00+5wsw2594100 1.3 1018275